Location: Gibsondale
(40.9931°N, 80.2478°W)
Time: 07:51:53
(UTC+00:00)

SMAP - Pass Details

Date: 29 October 2020
Orbit: 681 x 683 km, 98.1° (Epoch: 29 November)

Event Time Altitude Azimuth Distance (km) Brightness Sun altitude
Rises 22:54:31 0° 171° (S) 3,030 6.4 -7.2°
Reaches altitude 10° 22:56:45 10° 173° (S) 2,119 5.7 -7.6°
Maximum altitude 23:01:23 72° 258° (WSW) 720 3.4 -8.4°
Drops below altitude 10° 23:06:03 10° 343° (NNW) 2,134 5.7 -9.3°
Sets 23:08:19 0° 345° (NNW) 3,054 6.5 -9.7°
